When you browse on this site, cookies collect data to enhance your experience and personalize the content and advertising you see.
Visit our Privacy Policy to learn more. By continuing to use the site, you agree to this use of cookies and data.
  • în România
  • Lista ţărilor
  • Pe 7 zile
  • Temperatura apei
  • Meteo pe hartă
  • Widget-uri
  • user-avatar
    Intrare

    Meteo pe oră la Borschev

    Astăzi, 27 Ianuarie, Luni

    Timp Temperatura Precipitaţii Vânt Presiune Umiditate
    00:00 +1°C° 0 mm 1 m/s 740 mmHg 77%
    01:00 +1°C° 0 mm 1 m/s 740 mmHg 77%
    02:00 +1°C° 0 mm 1 m/s 740 mmHg 77%
    03:00 +1°C° 0 mm 1 m/s 739 mmHg 78%
    04:00 +1°C° 0 mm 1 m/s 739 mmHg 80%
    05:00 +1°C° 0 mm 1 m/s 738 mmHg 81%
    06:00 +1°C° 0 mm 1 m/s 738 mmHg 81%
    07:00 +1°C° 0 mm 1 m/s 738 mmHg 82%
    08:00 0°C° 0 mm 0 m/s 738 mmHg 83%
    09:00 +2°C° 0 mm 1 m/s 738 mmHg 79%
    10:00 +3°C° 0 mm 1 m/s 738 mmHg 76%
    11:00 +4°C° 0 mm 1 m/s 738 mmHg 72%
    12:00 +5°C° 0 mm 1 m/s 738 mmHg 72%
    13:00 +5°C° 0 mm 1 m/s 737 mmHg 71%
    14:00 +6°C° 0 mm 1 m/s 737 mmHg 71%
    15:00 +5°C° 0 mm 1 m/s 737 mmHg 75%
    16:00 +4°C° 0 mm 1 m/s 737 mmHg 80%
    17:00 +2°C° 0 mm 0 m/s 736 mmHg 84%
    18:00 +2°C° 0 mm 0 m/s 736 mmHg 85%
    19:00 +3°C° 0 mm 1 m/s 736 mmHg 85%
    20:00 +2°C° 0 mm 1 m/s 736 mmHg 86%
    21:00 +2°C° 0 mm 1 m/s 736 mmHg 87%
    22:00 +2°C° 0 mm 1 m/s 736 mmHg 87%
    23:00 +2°C° 0 mm 1 m/s 736 mmHg 88%

    Mâine, 28 Ianuarie, Marţi

    Timp Temperatura Precipitaţii Vânt Presiune Umiditate
    00:00 +2°C° 0 mm 1 m/s 736 mmHg 88%
    01:00 +1°C° 0 mm 0 m/s 735 mmHg 88%
    02:00 +1°C° 0 mm 0 m/s 735 mmHg 88%
    03:00 +1°C° 0 mm 0 m/s 735 mmHg 88%
    04:00 +1°C° 0 mm 0 m/s 734 mmHg 89%
    05:00 0°C° 0 mm 0 m/s 734 mmHg 89%
    06:00 +1°C° 0 mm 1 m/s 734 mmHg 89%
    07:00 +1°C° 0 mm 1 m/s 734 mmHg 89%
    08:00 +1°C° 0 mm 1 m/s 734 mmHg 89%
    09:00 +1°C° 0 mm 2 m/s 733 mmHg 85%
    10:00 +2°C° 0 mm 2 m/s 733 mmHg 81%
    11:00 +3°C° 0 mm 2 m/s 732 mmHg 77%
    12:00 +4°C° 0 mm 2 m/s 732 mmHg 76%
    13:00 +4°C° 0 mm 2 m/s 731 mmHg 75%
    14:00 +4°C° 0 mm 3 m/s 731 mmHg 74%
    15:00 +3°C° 0 mm 3 m/s 730 mmHg 78%
    16:00 +3°C° 0 mm 3 m/s 730 mmHg 81%
    17:00 +2°C° 0 mm 3 m/s 729 mmHg 85%
    18:00 +2°C° 0 mm 3 m/s 729 mmHg 86%
    19:00 +1°C° 0 mm 3 m/s 729 mmHg 87%
    20:00 +1°C° 0 mm 3 m/s 728 mmHg 88%
    21:00 +1°C° 0 mm 3 m/s 728 mmHg 89%
    22:00 +1°C° 0 mm 3 m/s 727 mmHg 89%
    23:00 +1°C° 0 mm 3 m/s 727 mmHg 90%

    Poimâine, 29 Ianuarie, Miercuri

    Timp Temperatura Precipitaţii Vânt Presiune Umiditate
    00:00 +1°C° 0 mm 3 m/s 726 mmHg 90%
    01:00 0°C° 0 mm 4 m/s 725 mmHg 90%
    02:00 0°C° 0 mm 4 m/s 724 mmHg 90%
    03:00 +1°C° 0.2 mm 3 m/s 724 mmHg 91%
    04:00 +1°C° 0.2 mm 3 m/s 723 mmHg 92%
    05:00 +1°C° 0.2 mm 3 m/s 722 mmHg 93%
    06:00 +1°C° 0.7 mm 3 m/s 722 mmHg 94%
    07:00 0°C° 0.7 mm 4 m/s 722 mmHg 95%
    08:00 0°C° 0.7 mm 5 m/s 723 mmHg 96%
    09:00 -2°C° 1.1 mm 6 m/s 723 mmHg 95%
    10:00 -2°C° 1.1 mm 8 m/s 724 mmHg 94%
    11:00 -3°C° 1.1 mm 9 m/s 724 mmHg 93%
    12:00 -3°C° 0.2 mm 9 m/s 725 mmHg 84%
    13:00 -1°C° 0.2 mm 9 m/s 725 mmHg 76%
    14:00 0°C° 0.2 mm 9 m/s 726 mmHg 68%
    15:00 -1°C° 0 mm 8 m/s 726 mmHg 69%
    16:00 -1°C° 0 mm 6 m/s 726 mmHg 70%
    17:00 -1°C° 0 mm 5 m/s 727 mmHg 72%
    18:00 -1°C° 0 mm 5 m/s 727 mmHg 75%
    19:00 -2°C° 0 mm 6 m/s 727 mmHg 78%
    20:00 -3°C° 0 mm 6 m/s 727 mmHg 81%
    21:00 -2°C° 0 mm 5 m/s 727 mmHg 79%
    22:00 -2°C° 0 mm 5 m/s 727 mmHg 78%
    23:00 -2°C° 0 mm 5 m/s 727 mmHg 76%

    30 Ianuarie, Joi

    Timp Temperatura Precipitaţii Vânt Presiune Umiditate
    00:00 -2°C° 0 mm 5 m/s 728 mmHg 77%
    01:00 -2°C° 0 mm 6 m/s 728 mmHg 77%
    02:00 -2°C° 0 mm 6 m/s 728 mmHg 77%
    03:00 -2°C° 0 mm 6 m/s 728 mmHg 80%
    04:00 -3°C° 0 mm 7 m/s 728 mmHg 83%
    05:00 -4°C° 0 mm 8 m/s 729 mmHg 86%
    06:00 -4°C° 0.1 mm 8 m/s 729 mmHg 88%
    07:00 -4°C° 0.1 mm 8 m/s 729 mmHg 91%
    08:00 -4°C° 0.1 mm 8 m/s 730 mmHg 94%
    09:00 -3°C° 0.1 mm 9 m/s 730 mmHg 93%
    10:00 -3°C° 0.1 mm 9 m/s 730 mmHg 92%
    11:00 -3°C° 0.1 mm 10 m/s 731 mmHg 91%
    12:00 -3°C° 0 mm 10 m/s 731 mmHg 88%
    13:00 -2°C° 0 mm 10 m/s 731 mmHg 84%
    14:00 -2°C° 0 mm 11 m/s 732 mmHg 81%
    15:00 -3°C° 0 mm 10 m/s 732 mmHg 82%
    16:00 -3°C° 0 mm 10 m/s 733 mmHg 84%
    17:00 -3°C° 0 mm 9 m/s 733 mmHg 86%
    18:00 -3°C° 0 mm 9 m/s 734 mmHg 84%
    19:00 -3°C° 0 mm 9 m/s 734 mmHg 82%
    20:00 -2°C° 0 mm 8 m/s 735 mmHg 80%
    21:00 -4°C° 0 mm 8 m/s 735 mmHg 80%
    22:00 -3°C° 0 mm 7 m/s 735 mmHg 81%
    23:00 -3°C° 0 mm 6 m/s 735 mmHg 81%

    31 Ianuarie, Vineri

    Timp Temperatura Precipitaţii Vânt Presiune Umiditate
    00:00 -4°C° 0 mm 5 m/s 735 mmHg 81%
    01:00 -3°C° 0 mm 4 m/s 735 mmHg 81%
    02:00 -2°C° 0 mm 3 m/s 735 mmHg 82%
    03:00 -2°C° 0 mm 3 m/s 735 mmHg 79%
    04:00 -2°C° 0 mm 2 m/s 735 mmHg 77%
    05:00 -1°C° 0 mm 2 m/s 735 mmHg 74%
    06:00 -1°C° 0 mm 3 m/s 735 mmHg 75%
    07:00 -1°C° 0 mm 3 m/s 735 mmHg 76%
    08:00 -1°C° 0 mm 3 m/s 734 mmHg 77%
    09:00 -1°C° 0 mm 4 m/s 734 mmHg 73%
    10:00 0°C° 0 mm 4 m/s 734 mmHg 70%
    11:00 +1°C° 0 mm 5 m/s 734 mmHg 66%
    12:00 +1°C° 0 mm 4 m/s 734 mmHg 65%
    13:00 +2°C° 0 mm 3 m/s 733 mmHg 64%
    14:00 +3°C° 0 mm 3 m/s 733 mmHg 62%
    15:00 +2°C° 0.1 mm 3 m/s 732 mmHg 67%
    16:00 +3°C° 0.1 mm 2 m/s 732 mmHg 71%
    17:00 +2°C° 0.1 mm 2 m/s 731 mmHg 75%
    18:00 +2°C° 0.2 mm 2 m/s 731 mmHg 80%
    19:00 0°C° 0.2 mm 3 m/s 731 mmHg 85%
    20:00 0°C° 0.2 mm 3 m/s 730 mmHg 90%
    21:00 -1°C° 0.4 mm 4 m/s 730 mmHg 92%
    22:00 0°C° 0.4 mm 5 m/s 730 mmHg 94%
    23:00 -1°C° 0.4 mm 7 m/s 730 mmHg 96%

    1 Februarie, Sâmbătă

    Timp Temperatura Precipitaţii Vânt Presiune Umiditate
    00:00 -1°C° 0.2 mm 6 m/s 731 mmHg 95%
    01:00 +1°C° 0.2 mm 6 m/s 731 mmHg 95%
    02:00 +1°C° 0.2 mm 6 m/s 732 mmHg 94%
    03:00 +1°C° 0.1 mm 6 m/s 732 mmHg 94%
    04:00 +1°C° 0.1 mm 5 m/s 733 mmHg 94%
    05:00 +1°C° 0.1 mm 5 m/s 733 mmHg 94%
    06:00 +1°C° 0.1 mm 4 m/s 734 mmHg 95%
    07:00 +2°C° 0.1 mm 3 m/s 734 mmHg 95%
    08:00 +2°C° 0.1 mm 3 m/s 735 mmHg 95%
    09:00 +2°C° 0 mm 3 m/s 735 mmHg 92%
    10:00 +1°C° 0 mm 4 m/s 736 mmHg 90%
    11:00 +3°C° 0 mm 4 m/s 736 mmHg 87%
    12:00 +3°C° 0 mm 3 m/s 736 mmHg 85%
    13:00 +4°C° 0 mm 3 m/s 736 mmHg 82%
    14:00 +5°C° 0 mm 2 m/s 736 mmHg 80%
    15:00 +5°C° 0 mm 2 m/s 736 mmHg 82%
    16:00 +6°C° 0 mm 1 m/s 736 mmHg 83%
    17:00 +6°C° 0 mm 1 m/s 736 mmHg 85%
    18:00 +5°C° 0 mm 1 m/s 736 mmHg 85%
    19:00 +4°C° 0 mm 2 m/s 736 mmHg 85%
    20:00 +4°C° 0 mm 2 m/s 736 mmHg 85%
    21:00 +4°C° 0 mm 2 m/s 736 mmHg 84%
    22:00 +4°C° 0 mm 2 m/s 736 mmHg 84%
    23:00 +4°C° 0 mm 2 m/s 736 mmHg 83%
    Arată mai mult